This demonstration page uses our WeatherBlox Daily Observations layout. Learn more.

Left ArrowRight Arrow

Hourly Observations for December 9, 2022

Temp ( °F °C ) Dew Point ( °F °C ) Humidity (%) Winds ( mph kmh ) Pressure ( in mb ) Visibility ( mi km ) Precip ( " mm )
12:44 am 00:44 Cloudy 33 0.6 30 -1.1 88 88 W 10 17 30.11 1020 7 11 0.00 0.00
12:54 am 00:54 Cloudy 33 0.6 30 -1.1 88 88 W 9 15 30.09 1019 7 11 0.00 0.00
1:54 am 01:54 Cloudy 33 0.6 29 -1.7 85 85 WNW 10 17 30.09 1019 8 13 0.00 0.00
2:54 am 02:54 Cloudy 33 0.6 29 -1.7 85 85 W 9 15 30.11 1020 9 14 0.00 0.00
3:01 am 03:01 Cloudy 32 0 29 -1.7 88 88 WNW 8 13 30.14 1021 9 14 0.00 0.00
3:14 am 03:14 Cloudy 33 0.6 29 -1.7 85 85 WNW 9 15 30.14 1021 10 16 0.00 0.00
3:54 am 03:54 Cloudy 33 0.6 30 -1.1 88 88 WNW 12 19 30.11 1020 10 16 0.00 0.00
4:28 am 04:28 Cloudy 33 0.6 29 -1.7 85 85 NW 13 20 30.14 1021 10 16 0.00 0.00
4:54 am 04:54 Cloudy 33 0.6 29 -1.7 85 85 NW 14 22 30.12 1020 10 16 0.00 0.00
5:54 am 05:54 Cloudy 32 0 28 -2.2 85 85 NW 9 15 30.14 1021 10 16 0.00 0.00
6:54 am 06:54 Cloudy 31 -0.6 28 -2.2 89 89 WNW 13 20 30.17 1022 9 14 0.00 0.00
7:54 am 07:54 Partly Cloudy 31 -0.6 28 -2.2 89 89 NNW 12 19 30.16 1021 7 11 0.00 0.00
8:54 am 08:54 Sunny 33 0.6 29 -1.7 85 85 WNW 10 17 30.20 1023 7 11 0.00 0.00
9:54 am 09:54 Sunny 36 2.2 30 -1.1 79 79 WNW 12 19 30.20 1023 7 11 0.00 0.00
10:26 am 10:26 Cloudy 37 2.8 31 -0.6 78 78 NW 12 19 30.23 1024 7 11 0.00 0.00
10:54 am 10:54 Cloudy 36 2.2 31 -0.6 82 82 NW 8 13 30.22 1023 8 13 0.00 0.00
11:54 am 11:54 Cloudy 36 2.2 31 -0.6 82 82 N 9 15 30.19 1023 7 11 0.00 0.00
12:54 pm 12:54 Cloudy 36 2.2 31 -0.6 82 82 N 5 7 30.18 1022 7 11 0.00 0.00
1:54 pm 13:54 Cloudy 36 2.2 30 -1.1 79 79 Calm 30.18 1022 8 13 0.00 0.00
2:54 pm 14:54 Cloudy 36 2.2 30 -1.1 79 79 ENE 3 6 30.17 1022 8 13 0.00 0.00
3:54 pm 15:54 Cloudy 36 2.2 30 -1.1 79 79 ESE 6 9 30.16 1022 9 14 0.00 0.00
4:54 pm 16:54 Cloudy 35 1.7 30 -1.1 82 82 SE 5 7 30.17 1022 9 14 0.00 0.00
5:54 pm 17:54 Cloudy 35 1.7 30 -1.1 82 82 Calm 30.18 1022 8 13 0.00 0.00
6:54 pm 18:54 Cloudy 35 1.7 30 -1.1 82 82 SE 5 7 30.18 1022 8 13 0.00 0.00
7:54 pm 19:54 Cloudy 35 1.7 31 -0.6 85 85 SSE 3 6 30.16 1022 8 13 0.00 0.00
8:54 pm 20:54 Cloudy with Haze 36 2.2 31 -0.6 82 82 E 3 6 30.15 1021 6 10 0.00 0.00
9:25 pm 21:25 Cloudy with Haze 35 1.7 30 -1.1 82 82 SSE 6 9 30.17 1022 6 10 0.00 0.00
10:54 pm 22:54 Cloudy 35 1.7 30 -1.1 82 82 SSE 3 6 30.17 1022 7 11 0.00 0.00
11:54 pm 23:54 Cloudy 34 1.1 30 -1.1 85 85 SSE 8 13 30.18 1022 7 11 0.00 0.00

Powered by AerisWeather